This demonstration page uses our WeatherBlox Daily Observations layout. Learn more.

Hourly Observations for August 18, 2016

Temp ( °F °C ) Dew Point ( °F °C ) Humidity (%) Winds ( mph kmh ) Pressure ( in mb ) Visibility ( mi km ) Precip ( " mm )
12:15 am 00:15 Clear 73 23 67 19.2 79 79 SE 8 13 29.94 1014 10 16.09344 0 0
12:35 am 00:35 Clear 72 22.3 67 19.2 83 83 SE 6 9 29.94 1014 10 16.09344 0 0
12:55 am 00:55 Clear 72 22.1 66 18.9 82 82 SE 6 9 29.91 1013 10 16.09344 0 0
1:15 am 01:15 Clear 71 21.5 65 18.5 83 83 SSE 5 7 29.91 1013 10 16.09344 0 0
1:35 am 01:35 Clear 69 20.7 65 18.2 86 86 Calm 29.91 1013 10 16.09344 0 0
1:55 am 01:55 Clear 69 20.8 63 17.1 79 79 S 3 6 29.91 1013 10 16.09344 0 0
2:15 am 02:15 Clear 69 20.5 62 16.8 79 79 SSW 5 7 29.91 1013 10 16.09344 0 0
2:35 am 02:35 Clear 68 20.1 62 16.5 80 80 S 3 6 29.91 1013 10 16.09344 0 0
2:55 am 02:55 Clear 68 20.1 61 16.3 79 79 Calm 29.91 1013 10 16.09344 0 0
3:15 am 03:15 Clear 66 18.8 60 15.8 83 83 S 5 7 29.94 1014 10 16.09344 0 0
3:35 am 03:35 Clear 68 19.9 59 15.2 74 74 Calm 29.91 1013 10 16.09344 0 0
3:55 am 03:55 Clear 68 20 59 14.8 72 72 Calm 29.91 1013 10 16.09344 0 0
4:15 am 04:15 Clear 65 18.5 58 14.5 78 78 Calm 29.94 1014 10 16.09344 0 0
4:35 am 04:35 Clear 64 17.8 58 14.7 82 82 Calm 29.94 1014 10 16.09344 0 0
4:55 am 04:55 Clear 64 17.6 58 14.6 83 83 Calm 29.94 1014 10 16.09344 0 0
5:15 am 05:15 Clear 67 19.3 57 13.9 71 71 Calm 29.91 1013 10 16.09344 0 0
5:35 am 05:35 Clear 68 19.8 56 13.1 65 65 W 3 6 29.88 1012 10 16.09344 0 0
5:55 am 05:55 Clear 68 20.2 55 12.7 62 62 W 3 6 29.88 1012 10 16.09344 0 0
6:15 am 06:15 Clear 68 20.1 55 12.6 62 62 WNW 3 6 29.88 1012 10 16.09344 0 0
6:35 am 06:35 Clear 69 20.4 54 12.4 60 60 WSW 5 7 29.88 1012 10 16.09344 0 0
6:55 am 06:55 Sunny 64 17.6 55 12.8 74 74 Calm 29.94 1014 10 16.09344 0 0
7:15 am 07:15 Sunny 62 16.7 56 13.3 80 80 Calm 29.94 1014 10 16.09344 0 0
7:35 am 07:35 Sunny 62 16.9 57 13.7 82 82 Calm 29.94 1014 10 16.09344 0 0
7:55 am 07:55 Sunny 64 18 59 15 83 83 Calm 29.94 1014 10 16.09344 0 0
8:15 am 08:15 Sunny 67 19.2 60 15.6 80 80 Calm 29.94 1014 10 16.09344 0 0
8:35 am 08:35 Sunny 70 21 60 15.8 72 72 Calm 29.91 1013 10 16.09344 0 0
8:55 am 08:55 Sunny 71 21.4 59 14.8 66 66 Calm 29.91 1013 10 16.09344 0 0
9:15 am 09:15 Sunny 72 22.4 59 14.8 62 62 Calm 29.91 1013 10 16.09344 0 0
9:35 am 09:35 Sunny 75 24 59 15 57 57 Calm 29.88 1012 10 16.09344 0 0
9:55 am 09:55 Sunny 77 25.2 59 15 53 53 SSE 3 6 29.88 1012 10 16.09344 0 0
10:15 am 10:15 Sunny 79 26.1 59 15 50 50 WSW 3 6 29.88 1012 10 16.09344 0 0
10:35 am 10:35 Sunny 80 26.8 58 14.7 47 47 SW 7 11 29.88 1012 10 16.09344 0 0
10:55 am 10:55 Sunny 81 27.3 59 15.1 47 47 SW 6 9 29.85 1011 10 16.09344 0 0
11:15 am 11:15 Sunny 82 27.8 59 14.8 45 45 SSW 8 13 29.85 1011 10 16.09344 0 0
11:35 am 11:35 Sunny 84 28.9 60 15.6 44 44 SSW 5 7 29.85 1011 10 16.09344 0 0
11:55 am 11:55 Sunny 85 29.5 59 15.2 42 42 S 5 7 29.85 1011 10 16.09344 0 0
12:15 pm 12:15 Sunny 87 30.5 60 15.3 40 40 SSW 7 11 29.8 1009 10 16.09344 0 0
12:35 pm 12:35 Sunny 88 31 61 15.9 40 40 S 6 9 29.8 1009 10 16.09344 0 0
12:55 pm 12:55 Sunny 89 31.8 60 15.5 37 37 S 9 15 29.8 1009 10 16.09344 0 0
1:15 pm 13:15 Sunny 90 32.1 58 14.6 35 35 SSW 9 15 29.8 1009 10 16.09344 0 0
1:35 pm 13:35 Sunny 91 32.7 59 15 34 34 S 13 20 29.8 1009 10 16.09344 0 0
1:55 pm 13:55 Sunny 91 33 58 14.7 33 33 S 12 19 29.8 1009 10 16.09344 0 0
2:15 pm 14:15 Sunny 91 32.8 62 16.6 38 38 SE 10 17 29.77 1008 10 16.09344 0 0
2:35 pm 14:35 Sunny 92 33.6 58 14.7 32 32 S 14 22 29.77 1008 10 16.09344 0 0
2:55 pm 14:55 Sunny 93 33.9 55 12.9 28 28 S 16 26 29.74 1007 10 16.09344 0 0
3:15 pm 15:15 Sunny 93 34 56 13.6 29 29 S 12 19 29.74 1007 10 16.09344 0 0
3:35 pm 15:35 Sunny 93 34 56 13.6 29 29 S 15 24 29.71 1006 10 16.09344 0 0
3:55 pm 15:55 Sunny 92 33.6 54 12.1 27 27 S 18 30 29.71 1006 10 16.09344 0 0
4:15 pm 16:15 Sunny 92 33.5 52 11.3 26 26 SSE 17 28 29.71 1006 10 16.09344 0 0
4:35 pm 16:35 Sunny 92 33.5 56 13.5 30 30 SSE 15 24 29.71 1006 10 16.09344 0 0
4:55 pm 16:55 Sunny 92 33.2 55 12.8 29 29 SSE 15 24 29.74 1007 10 16.09344 0 0
5:15 pm 17:15 Sunny 91 33 56 13.4 30 30 SSE 14 22 29.74 1007 10 16.09344 0 0
5:35 pm 17:35 Sunny 91 32.8 58 14.2 32 32 SSE 13 20 29.71 1006 10 16.09344 0 0
5:55 pm 17:55 Sunny 90 32.2 56 13.6 32 32 SSE 13 20 29.71 1006 10 16.09344 0 0
6:15 pm 18:15 Sunny 89 31.8 56 13.4 33 33 SSE 12 19 29.71 1006 10 16.09344 0 0
6:35 pm 18:35 Sunny 88 31.2 58 14.4 36 36 SSE 10 17 29.71 1006 10 16.09344 0 0
6:55 pm 18:55 Sunny 87 30.6 59 15 39 39 SSE 10 17 29.71 1006 10 16.09344 0 0
7:15 pm 19:15 Sunny 86 29.8 59 15 41 41 SSE 10 17 29.71 1006 10 16.09344 0 0
7:35 pm 19:35 Sunny 83 28.6 59 15.2 44 44 SSE 10 17 29.74 1007 10 16.09344 0 0
7:55 pm 19:55 Sunny 82 27.7 59 15 46 46 SSE 9 15 29.74 1007 10 16.09344 0 0
8:15 pm 20:15 Sunny 79 26.1 60 15.3 51 51 SSE 8 13 29.74 1007 10 16.09344 0 0
8:35 pm 20:35 Clear 77 25.1 60 15.5 55 55 SSE 8 13 29.77 1008 10 16.09344 0 0
8:55 pm 20:55 Clear 75 24 61 16 61 61 SSE 8 13 29.8 1009 10 16.09344 0 0
9:15 pm 21:15 Clear 74 23.4 61 16 63 63 SSE 8 13 29.8 1009 10 16.09344 0 0
9:35 pm 21:35 Clear 74 23.4 60 15.7 62 62 SSE 8 13 29.8 1009 10 16.09344 0 0
9:55 pm 21:55 Clear 72 22.2 61 16 68 68 SSE 8 13 29.83 1010 10 16.09344 0 0
10:15 pm 22:15 Clear 72 22.2 61 16 68 68 SSE 8 13 29.83 1010 10 16.09344 0 0
10:35 pm 22:35 Clear 72 22.2 61 16.1 68 68 SSE 9 15 29.83 1010 10 16.09344 0 0
10:55 pm 22:55 Clear 72 22.1 61 16.1 69 69 S 7 11 29.83 1010 10 16.09344 0 0
11:15 pm 23:15 Clear 73 22.5 61 16.1 67 67 S 7 11 29.85 1011 10 16.09344 0 0
11:35 pm 23:35 Clear 72 22 61 16.1 69 69 S 7 11 29.85 1011 10 16.09344 0 0
11:55 pm 23:55 Clear 74 23.2 61 16.1 64 64 S 10 17 29.83 1010 10 16.09344 0 0

Powered by AerisWeather